When you browse on this site, cookies collect data to enhance your experience and personalize the content and advertising you see.
Visit our Privacy Policy to learn more. By continuing to use the site, you agree to this use of cookies and data.
  • In Latvia
  • List of Countries
  • For 7 days
  • Water Temperature
  • Weather Map
  • Weather Widgets
  • user-avatar
    Login

    Hourly Weather Escaldes-Engordany

    Today, 1 April, Wednesday

    Time Temperature Precipitation Wind Pressure Humidity
    00:00 +4°C° 0 mm 1 mps 635 mmHg 97%
    01:00 +4°C° 0.1 mm 1 mps 635 mmHg 97%
    02:00 +3°C° 0.1 mm 1 mps 635 mmHg 97%
    03:00 +3°C° 0.1 mm 1 mps 634 mmHg 97%
    04:00 +3°C° 0 mm 1 mps 634 mmHg 96%
    05:00 +3°C° 0 mm 1 mps 634 mmHg 96%
    06:00 +3°C° 0 mm 1 mps 635 mmHg 96%
    07:00 +4°C° 0 mm 1 mps 635 mmHg 94%
    08:00 +5°C° 0 mm 1 mps 636 mmHg 92%
    09:00 +6°C° 0 mm 1 mps 636 mmHg 90%
    10:00 +7°C° 0.1 mm 1 mps 636 mmHg 89%
    11:00 +7°C° 0.1 mm 1 mps 636 mmHg 88%
    12:00 +7°C° 0.1 mm 1 mps 636 mmHg 87%
    13:00 +8°C° 0.3 mm 1 mps 636 mmHg 88%
    14:00 +8°C° 0.3 mm 1 mps 636 mmHg 88%
    15:00 +8°C° 0.3 mm 1 mps 635 mmHg 89%
    16:00 +7°C° 0.3 mm 1 mps 635 mmHg 92%
    17:00 +6°C° 0.3 mm 1 mps 635 mmHg 95%
    18:00 +4°C° 0.3 mm 0 mps 634 mmHg 97%
    19:00 +5°C° 0.2 mm 1 mps 634 mmHg 97%
    20:00 +4°C° 0.2 mm 1 mps 635 mmHg 97%
    21:00 +4°C° 0.2 mm 1 mps 635 mmHg 97%
    22:00 +4°C° 0.4 mm 1 mps 635 mmHg 97%
    23:00 +3°C° 0.4 mm 0 mps 634 mmHg 98%

    Tomorrow, 2 April, Thursday

    Time Temperature Precipitation Wind Pressure Humidity
    00:00 +3°C° 0.4 mm 0 mps 634 mmHg 98%
    01:00 +3°C° 0.5 mm 0 mps 634 mmHg 98%
    02:00 +2°C° 0.5 mm 0 mps 634 mmHg 98%
    03:00 +3°C° 0.5 mm 1 mps 633 mmHg 98%
    04:00 +3°C° 0.2 mm 1 mps 633 mmHg 98%
    05:00 +3°C° 0.2 mm 1 mps 633 mmHg 98%
    06:00 +3°C° 0.2 mm 1 mps 633 mmHg 98%
    07:00 +4°C° 0.1 mm 1 mps 634 mmHg 96%
    08:00 +5°C° 0.1 mm 1 mps 634 mmHg 94%
    09:00 +5°C° 0.1 mm 1 mps 635 mmHg 92%
    10:00 +6°C° 0.2 mm 1 mps 635 mmHg 92%
    11:00 +6°C° 0.2 mm 1 mps 635 mmHg 92%
    12:00 +6°C° 0.2 mm 1 mps 635 mmHg 92%
    13:00 +6°C° 0.3 mm 1 mps 635 mmHg 93%
    14:00 +5°C° 0.3 mm 1 mps 634 mmHg 93%
    15:00 +5°C° 0.3 mm 1 mps 634 mmHg 94%
    16:00 +5°C° 0.2 mm 1 mps 634 mmHg 95%
    17:00 +4°C° 0.2 mm 1 mps 634 mmHg 95%
    18:00 +4°C° 0.2 mm 1 mps 634 mmHg 96%
    19:00 +3°C° 0 mm 1 mps 634 mmHg 96%
    20:00 +3°C° 0 mm 1 mps 634 mmHg 96%
    21:00 +2°C° 0 mm 1 mps 634 mmHg 95%
    22:00 +2°C° 0 mm 1 mps 634 mmHg 95%
    23:00 +1°C° 0 mm 1 mps 634 mmHg 94%

    Day after tomorrow, 3 April, Friday

    Time Temperature Precipitation Wind Pressure Humidity
    00:00 +1°C° 0 mm 1 mps 634 mmHg 93%
    01:00 -1°C° 0 mm 2 mps 634 mmHg 93%
    02:00 -2°C° 0 mm 2 mps 633 mmHg 93%
    03:00 -2°C° 0 mm 2 mps 633 mmHg 93%
    04:00 -2°C° 0 mm 2 mps 633 mmHg 93%
    05:00 -2°C° 0 mm 2 mps 634 mmHg 93%
    06:00 -2°C° 0 mm 2 mps 634 mmHg 93%
    07:00 -1°C° 0 mm 2 mps 634 mmHg 88%
    08:00 +2°C° 0 mm 2 mps 635 mmHg 83%
    09:00 +5°C° 0 mm 1 mps 636 mmHg 78%
    10:00 +6°C° 0 mm 1 mps 636 mmHg 73%
    11:00 +7°C° 0 mm 1 mps 637 mmHg 69%
    12:00 +8°C° 0 mm 1 mps 637 mmHg 64%
    13:00 +9°C° 0 mm 1 mps 637 mmHg 64%
    14:00 +9°C° 0 mm 1 mps 637 mmHg 65%
    15:00 +9°C° 0 mm 1 mps 636 mmHg 65%
    16:00 +7°C° 0 mm 1 mps 636 mmHg 74%
    17:00 +6°C° 0 mm 1 mps 636 mmHg 82%
    18:00 +4°C° 0 mm 1 mps 635 mmHg 90%
    19:00 +3°C° 0 mm 1 mps 635 mmHg 89%
    20:00 +3°C° 0 mm 1 mps 636 mmHg 87%
    21:00 +2°C° 0 mm 1 mps 636 mmHg 85%
    22:00 +2°C° 0 mm 1 mps 636 mmHg 85%
    23:00 +2°C° 0 mm 1 mps 636 mmHg 85%

    4 April, Saturday

    Time Temperature Precipitation Wind Pressure Humidity
    00:00 +1°C° 0 mm 1 mps 636 mmHg 84%
    01:00 +2°C° 0 mm 1 mps 636 mmHg 86%
    02:00 +2°C° 0 mm 1 mps 636 mmHg 88%
    03:00 +2°C° 0 mm 1 mps 636 mmHg 89%
    04:00 +2°C° 0 mm 1 mps 636 mmHg 86%
    05:00 +2°C° 0 mm 1 mps 636 mmHg 83%
    06:00 +2°C° 0 mm 1 mps 636 mmHg 80%
    07:00 +5°C° 0 mm 1 mps 637 mmHg 73%
    08:00 +7°C° 0 mm 1 mps 638 mmHg 66%
    09:00 +10°C° 0 mm 1 mps 639 mmHg 59%
    10:00 +11°C° 0 mm 1 mps 639 mmHg 58%
    11:00 +12°C° 0 mm 1 mps 640 mmHg 57%
    12:00 +13°C° 0 mm 2 mps 640 mmHg 57%
    13:00 +13°C° 0 mm 2 mps 640 mmHg 58%
    14:00 +13°C° 0 mm 2 mps 640 mmHg 59%
    15:00 +13°C° 0 mm 2 mps 639 mmHg 60%
    16:00 +10°C° 0 mm 2 mps 639 mmHg 69%
    17:00 +9°C° 0 mm 2 mps 638 mmHg 77%
    18:00 +7°C° 0 mm 2 mps 638 mmHg 85%
    19:00 +6°C° 0 mm 2 mps 638 mmHg 88%
    20:00 +5°C° 0 mm 2 mps 638 mmHg 91%
    21:00 +4°C° 0 mm 2 mps 638 mmHg 94%
    22:00 +4°C° 0 mm 2 mps 638 mmHg 93%
    23:00 +4°C° 0 mm 2 mps 638 mmHg 92%

    5 April, Sunday

    Time Temperature Precipitation Wind Pressure Humidity
    00:00 +4°C° 0 mm 2 mps 638 mmHg 92%
    01:00 +3°C° 0 mm 2 mps 638 mmHg 91%
    02:00 +3°C° 0 mm 2 mps 637 mmHg 90%
    03:00 +2°C° 0 mm 2 mps 637 mmHg 89%
    04:00 +2°C° 0 mm 2 mps 637 mmHg 88%
    05:00 +1°C° 0 mm 2 mps 637 mmHg 86%
    06:00 +1°C° 0 mm 2 mps 637 mmHg 85%
    07:00 +3°C° 0 mm 2 mps 638 mmHg 77%
    08:00 +5°C° 0 mm 2 mps 639 mmHg 69%
    09:00 +7°C° 0 mm 2 mps 639 mmHg 60%
    10:00 +8°C° 0 mm 2 mps 640 mmHg 57%
    11:00 +10°C° 0 mm 3 mps 640 mmHg 53%
    12:00 +11°C° 0 mm 3 mps 640 mmHg 49%
    13:00 +11°C° 0 mm 3 mps 640 mmHg 51%
    14:00 +10°C° 0 mm 3 mps 640 mmHg 54%
    15:00 +10°C° 0 mm 3 mps 640 mmHg 56%
    16:00 +9°C° 0 mm 3 mps 639 mmHg 64%
    17:00 +7°C° 0 mm 2 mps 639 mmHg 73%
    18:00 +6°C° 0 mm 2 mps 638 mmHg 82%
    19:00 +5°C° 0 mm 2 mps 638 mmHg 84%
    20:00 +4°C° 0 mm 2 mps 638 mmHg 87%
    21:00 +3°C° 0 mm 2 mps 638 mmHg 90%
    22:00 +3°C° 0 mm 2 mps 638 mmHg 89%
    23:00 +3°C° 0 mm 2 mps 638 mmHg 88%

    6 April, Monday

    Time Temperature Precipitation Wind Pressure Humidity
    00:00 +2°C° 0 mm 2 mps 638 mmHg 88%
    01:00 +2°C° 0 mm 2 mps 638 mmHg 87%
    02:00 +2°C° 0 mm 2 mps 638 mmHg 87%
    03:00 +3°C° 0 mm 1 mps 638 mmHg 86%
    04:00 +3°C° 0 mm 1 mps 638 mmHg 84%
    05:00 +4°C° 0 mm 1 mps 639 mmHg 82%
    06:00 +4°C° 0 mm 1 mps 639 mmHg 80%
    07:00 +6°C° 0 mm 1 mps 640 mmHg 78%
    08:00 +7°C° 0 mm 1 mps 640 mmHg 75%
    09:00 +8°C° 0 mm 1 mps 641 mmHg 73%
    10:00 +8°C° 0.2 mm 1 mps 641 mmHg 78%
    11:00 +8°C° 0.2 mm 1 mps 641 mmHg 82%
    12:00 +7°C° 0.2 mm 1 mps 641 mmHg 86%
    13:00 +7°C° 0.2 mm 1 mps 641 mmHg 88%
    14:00 +7°C° 0.2 mm 1 mps 641 mmHg 89%
    15:00 +7°C° 0.2 mm 1 mps 641 mmHg 91%
    16:00 +7°C° 0 mm 1 mps 641 mmHg 92%
    17:00 +7°C° 0 mm 1 mps 641 mmHg 94%
    18:00 +6°C° 0 mm 1 mps 641 mmHg 95%
    19:00 +6°C° 0 mm 1 mps 642 mmHg 95%
    20:00 +6°C° 0 mm 1 mps 642 mmHg 95%
    21:00 +5°C° 0 mm 1 mps 642 mmHg 95%
    22:00 +5°C° 0 mm 1 mps 642 mmHg 94%
    23:00 +5°C° 0 mm 1 mps 642 mmHg 94%
    Show more